Content
SEND FEEDBACK

Spain Flag

BARCELONA, SPAIN


Home > Europe > Spain
Elevation: 20 feet     Latitude: 41 17N     Longitude: 002 04E

WEATHER
 
SELECT A DAY
Number of Records: 333,420;   Date Range: 7/1/96 - 3/22/16
 
SHARE

PRINT THIS DATA

[ ← Previous Day ]
WEATHER ALMANAC - FEBRUARY 14, 2013
[ Next Day → ]
[ °C ]   °F
Weather ElementAverageHighLow
Temperature51.6 °F59 °F (1:00 pm)42.8 °F (8:00 am)
Dewpoint42.4 °F50 °F (8:00 pm)34 °F (7:00 am)
Humidity70.6 %87 % (11:30 pm)40 % (1:00 pm)
Barometer30.13 in30.18 in (11:30 am)30.09 in (5:00 am)
Wind Speed8.1 mph13.8 mph (7:00 am)
Wind Gust19.6 mph (11:30 am)
Weather ElementAverage
Visibility6.7 mi
Wind DirectionWSW (254.8 °)

Weather ElementTotal
Precipitation---
Heating Degree Days14.1 (Base 65)
Growing Degree Days0.9 (Base 50)
Averaged from 50 records on February 14, 2013
WEATHER CONDITIONS BREAKOUT
WIND DIRECTION BREAKOUT
WEATHER BY HOUR - FEBRUARY 14, 2013
[ °C ]   °F
Local TimeTemperatureDewpointHumidityBarometerVisibilityWind DirectionWind SpeedGust SpeedPrecipitationEventsConditions
1:00 AM46.0 °F38.0 °F66 %30.12 in12.0 miNorth8.1 mphPartly Cloudy
1:00 AM46.4 °F39.2 °F76 %30.12 in6.2 miNNW (330°)8.1 mphPartly Cloudy
1:30 AM46.4 °F39.2 °F76 %30.12 in6.2 miNNW (330°)8.1 mphPartly Cloudy
2:00 AM48.2 °F39.2 °F71 %30.12 in6.2 miNNW (330°)9.2 mphPartly Cloudy
2:30 AM48.2 °F39.2 °F71 %30.12 in6.2 miNW (320°)10.4 mphPartly Cloudy
3:00 AM46.4 °F39.2 °F76 %30.12 in6.2 miNNW (330°)10.4 mphPartly Cloudy
3:30 AM46.4 °F39.2 °F76 %30.12 in6.2 miNNW (330°)9.2 mphPartly Cloudy
4:00 AM46.4 °F39.2 °F76 %30.12 in6.2 miNNW (330°)11.5 mphPartly Cloudy
4:30 AM46.4 °F39.2 °F76 %30.12 in6.2 miNNW (330°)9.2 mphPartly Cloudy
5:00 AM46.4 °F39.2 °F76 %30.09 in6.2 miNNW (330°)11.5 mphPartly Cloudy
5:30 AM44.6 °F37.4 °F76 %30.09 in6.2 miNW (320°)10.4 mphPartly Cloudy
6:00 AM44.6 °F37.4 °F76 %30.09 in6.2 miNNW (330°)11.5 mphPartly Cloudy
6:30 AM44.6 °F35.6 °F71 %30.12 in6.2 miNNW (330°)11.5 mphPartly Cloudy
7:00 AM44.0 °F34.0 °F59 %30.13 in11.0 miNorth (350°)13.8 mphPartly Cloudy
7:00 AM44.6 °F35.6 °F71 %30.12 in6.2 miNNW (330°)12.7 mphScattered Clouds
7:30 AM44.6 °F35.6 °F71 %30.12 in6.2 miNNW (330°)12.7 mphScattered Clouds
8:00 AM42.8 °F35.6 °F76 %30.12 in6.2 miNNW (330°)12.7 mphMostly Cloudy
8:30 AM44.6 °F35.6 °F71 %30.12 in6.2 miNW (320°)10.4 mphMostly Cloudy
9:00 AM44.6 °F37.4 °F76 %30.15 in6.2 miNNW (330°)10.4 mphScattered Clouds
9:30 AM46.4 °F37.4 °F71 %30.15 in6.2 miNW (320°)11.5 mphScattered Clouds
10:00 AM50.0 °F39.2 °F66 %30.15 in6.2 miNW (320°)9.2 mphPartly Cloudy
10:30 AM51.8 °F41.0 °F67 %30.15 in6.2 miWNW (300°)9.2 mphPartly Cloudy
11:00 AM53.6 °F41.0 °F62 %30.15 in6.2 miNW (310°)5.8 mphPartly Cloudy
11:30 AM55.4 °F41.0 °F58 %30.18 in6.2 miNW (310°)5.8 mph19.6 mphPartly Cloudy
12:00 PM55.4 °F41.0 °F58 %30.18 in6.2 miNW (320°)8.1 mph19.6 mphPartly Cloudy
12:30 PM57.2 °F41.0 °F55 %30.18 in6.2 miEast (90°)2.3 mphPartly Cloudy
1:00 PM59.0 °F41.0 °F40 %30.18 in17.0 miSouth (180°)5.8 mphScattered Clouds
1:00 PM59.0 °F42.8 °F55 %30.15 in6.2 miSE (140°)9.2 mphPartly Cloudy
1:30 PM57.2 °F42.8 °F59 %30.15 in6.2 miSSE (160°)6.9 mphScattered Clouds
2:00 PM57.2 °F42.8 °F59 %30.15 in6.2 miSouth (180°)9.2 mphScattered Clouds
2:30 PM57.2 °F46.4 °F67 %30.15 in6.2 miSouth (180°)11.5 mphPartly Cloudy
3:00 PM57.2 °F46.4 °F67 %30.15 in6.2 miSouth (180°)10.4 mphPartly Cloudy
3:30 PM57.2 °F46.4 °F67 %30.12 in6.2 miSouth (180°)9.2 mphPartly Cloudy
4:00 PM57.2 °F48.2 °F72 %30.12 in6.2 miSouth (170°)9.2 mphPartly Cloudy
4:30 PM57.2 °F48.2 °F72 %30.12 in6.2 miSouth (170°)8.1 mphPartly Cloudy
5:00 PM57.2 °F48.2 °F72 %30.12 in6.2 miSouth (180°)6.9 mphPartly Cloudy
5:30 PM57.2 °F48.2 °F72 %30.12 in6.2 miSSW (200°)6.9 mphPartly Cloudy
6:00 PM55.4 °F48.2 °F77 %30.12 in6.2 miSSW (210°)5.8 mphScattered Clouds
6:30 PM55.4 °F48.2 °F77 %30.12 in6.2 miSSW (210°)5.8 mphScattered Clouds
7:00 PM54.0 °F47.0 °F70 %30.15 in12.0 miSSW (210°)5.8 mphScattered Clouds
7:00 PM55.4 °F48.2 °F77 %30.12 in6.2 miSSW (210°)4.6 mphScattered Clouds
7:30 PM55.4 °F48.2 °F77 %30.15 in6.2 miSW (220°)5.8 mphScattered Clouds
8:00 PM55.4 °F50.0 °F82 %30.15 in6.2 miSW (230°)3.5 mphScattered Clouds
8:30 PM55.4 °F48.2 °F77 %30.15 in6.2 miSW (230°)4.6 mphScattered Clouds
9:00 PM55.4 °F48.2 °F77 %30.15 in6.2 miWNW (290°)3.5 mphScattered Clouds
9:30 PM55.4 °F46.4 °F72 %30.15 in6.2 miWNW (300°)3.5 mphScattered Clouds
10:00 PM55.4 °F46.4 °F72 %30.15 in6.2 miVariable1.2 mphScattered Clouds
10:30 PM53.6 °F46.4 °F77 %30.15 in6.2 miWest (280°)3.5 mphScattered Clouds
11:00 PM53.6 °F48.2 °F82 %30.12 in6.2 miSSW (210°)2.3 mphPartly Cloudy
11:30 PM50.0 °F46.4 °F87 %30.12 in6.2 miNW (320°)5.8 mphPartly Cloudy
Hourly data recorded from LEBL, located miles away from Barcelona, Spain




STORIES FROM OUR PARTNERS